Location: Couloutre
(47.4081°N, 3.2259°E)
Time: 23:33:36
(UTC+00:00)

STARLINK-42 - Pass Details

Date: 27 February 2020
Orbit: 393 x 397 km, 53.0° (Epoch: 05 April)

Event Time Altitude Azimuth Distance (km) Brightness Sun altitude
Rises 19:28:29 0° 296° (WNW) 2,317 8.2 -21.0°
Reaches altitude 10° 19:30:38 10° 304° (NW) 1,457 6.7 -21.4°
Enters shadow 19:33:06 36° 343° (NNW) 653 4.2 -21.8°
